TimeEDT,TemperatureF,Dew PointF,Humidity,Sea Level PressureIn,VisibilityMPH,Wind Direction,Wind SpeedMPH,Gust SpeedMPH,PrecipitationIn,Events,Conditions,WindDirDegrees,DateUTC
12:51 AM,52.0,50.0,93,29.97,7.0,Calm,Calm,-,N/A,,Scattered Clouds,0,2012-09-09 04:51:00
1:51 AM,52.0,50.0,93,29.96,7.0,Calm,Calm,-,N/A,,Mostly Cloudy,0,2012-09-09 05:51:00
2:51 AM,53.1,51.1,93,29.95,10.0,Calm,Calm,-,N/A,,Mostly Cloudy,0,2012-09-09 06:51:00
3:51 AM,51.1,50.0,96,29.94,7.0,Calm,Calm,-,N/A,,Mostly Cloudy,0,2012-09-09 07:51:00
4:07 AM,51.8,50.0,94,29.94,6.0,Calm,Calm,-,N/A,,Mostly Cloudy,0,2012-09-09 08:07:00
4:27 AM,51.8,50.0,94,29.94,9.0,Calm,Calm,-,N/A,,Overcast,0,2012-09-09 08:27:00
4:51 AM,51.1,50.0,96,29.96,7.0,Calm,Calm,-,N/A,,Overcast,0,2012-09-09 08:51:00
5:29 AM,50.0,48.2,94,29.95,9.0,Calm,Calm,-,N/A,,Scattered Clouds,0,2012-09-09 09:29:00
5:43 AM,50.0,48.2,94,29.94,9.0,Calm,Calm,-,N/A,,Mostly Cloudy,0,2012-09-09 09:43:00
5:51 AM,48.9,48.0,97,29.95,8.0,Calm,Calm,-,N/A,,Scattered Clouds,0,2012-09-09 09:51:00
6:29 AM,50.0,48.2,94,29.95,8.0,Calm,Calm,-,N/A,,Scattered Clouds,0,2012-09-09 10:29:00
6:38 AM,50.0,48.2,94,29.95,7.0,Calm,Calm,-,N/A,,Mostly Cloudy,0,2012-09-09 10:38:00
6:51 AM,50.0,48.9,96,29.97,8.0,Calm,Calm,-,N/A,,Overcast,0,2012-09-09 10:51:00
7:02 AM,50.0,48.2,94,29.96,9.0,Calm,Calm,-,N/A,,Overcast,0,2012-09-09 11:02:00
7:32 AM,50.0,48.2,94,29.97,10.0,Calm,Calm,-,N/A,,Overcast,0,2012-09-09 11:32:00
7:51 AM,51.1,48.9,92,29.99,10.0,Calm,Calm,-,N/A,,Overcast,0,2012-09-09 11:51:00
8:05 AM,51.8,48.2,88,29.98,10.0,Calm,Calm,-,N/A,,Overcast,0,2012-09-09 12:05:00
8:51 AM,54.0,51.1,90,29.99,10.0,Calm,Calm,-,N/A,,Overcast,0,2012-09-09 12:51:00
9:48 AM,57.2,53.6,88,29.99,10.0,Calm,Calm,-,N/A,,Scattered Clouds,0,2012-09-09 13:48:00
9:51 AM,57.9,53.1,84,30.00,10.0,Calm,Calm,-,N/A,,Partly Cloudy,0,2012-09-09 13:51:00
10:35 AM,60.8,53.6,77,30.01,10.0,Calm,Calm,-,0.01,,Mostly Cloudy,0,2012-09-09 14:35:00
10:47 AM,62.6,53.6,72,30.01,10.0,Calm,Calm,-,0.01,,Mostly Cloudy,0,2012-09-09 14:47:00
10:51 AM,62.1,53.1,72,30.01,10.0,Calm,Calm,-,0.01,,Mostly Cloudy,0,2012-09-09 14:51:00
11:51 AM,64.9,48.9,56,30.01,10.0,WNW,6.9,-,0.01,,Scattered Clouds,290,2012-09-09 15:51:00
12:51 PM,63.0,48.0,58,30.01,10.0,NW,9.2,17.3,N/A,,Mostly Cloudy,320,2012-09-09 16:51:00
1:51 PM,66.0,48.0,52,30.00,10.0,Variable,4.6,-,0.01,,Scattered Clouds,0,2012-09-09 17:51:00
2:51 PM,66.9,46.0,47,29.99,10.0,Variable,5.8,-,N/A,,Scattered Clouds,0,2012-09-09 18:51:00
3:51 PM,66.0,45.0,47,29.99,10.0,WNW,8.1,-,N/A,,Mostly Cloudy,290,2012-09-09 19:51:00
4:51 PM,68.0,46.0,45,30.00,10.0,NW,9.2,-,0.01,,Scattered Clouds,310,2012-09-09 20:51:00
5:51 PM,64.0,46.9,54,30.01,10.0,WNW,6.9,-,N/A,,Overcast,300,2012-09-09 21:51:00
6:51 PM,63.0,48.9,60,30.02,10.0,Calm,Calm,-,N/A,,Overcast,0,2012-09-09 22:51:00
7:51 PM,57.0,52.0,83,30.04,10.0,Calm,Calm,-,N/A,,Scattered Clouds,0,2012-09-09 23:51:00
8:51 PM,55.9,52.0,87,30.06,10.0,Calm,Calm,-,N/A,,Mostly Cloudy,0,2012-09-10 00:51:00
9:51 PM,55.0,52.0,89,30.07,10.0,Calm,Calm,-,N/A,,Overcast,0,2012-09-10 01:51:00
10:51 PM,55.9,52.0,87,30.08,10.0,Calm,Calm,-,0.00,Rain,Light Rain,0,2012-09-10 02:51:00
11:51 PM,53.1,51.1,93,30.09,10.0,Calm,Calm,-,0.00,,Scattered Clouds,0,2012-09-10 03:51:00